Location: Unspecified
(0.0000°N, 0.0000°E)
Time: 13:49:48
(UTC+00:00)

ISS - Pass Details

Date: 18 May 2022
Orbit: 414 x 421 km, 51.6° (Epoch: 20 May)

Event Time Altitude Azimuth Distance (km) Brightness Sun altitude
Exits shadow 05:31:58 - 282° (WNW) 1,996 -0.8 -5.8°
Reaches altitude 10° 05:34:09 10° 255° (WSW) 1,482 -1.7 -5.3°
Maximum altitude 05:35:22 12° 234° (SW) 1,392 -1.7 -5.0°
Drops below altitude 10° 05:36:35 10° 212° (SSW) 1,486 -1.4 -4.7°
Sets 05:39:52 0° 177° (S) 2,353 -0.1 -3.9°
